Location: Bieujac
(44.5398°N, 0.1549°W)
Time: 00:04:12
(UTC+00:00)

Gbstr 26 Del rocket - Pass Details

Date: 17 November 2019
Orbit: 493 x 1264 km, 51.8° (Epoch: 14 December)

Event Time Altitude Azimuth Distance (km) Brightness Sun altitude
Exits shadow 05:51:36 19° 291° (WNW) 1,252 4.0 -12.1°
Maximum altitude 05:53:44 34° 345° (NNW) 840 3.5 -11.7°
Drops below altitude 10° 05:57:11 10° 52° (NE) 1,699 5.8 -11.1°
Sets 05:59:31 0° 62° (ENE) 2,616 7.0 -10.7°
